Location: Biltmore Gardens
(41.6070°N, 83.4666°W)
Time: 14:16:38
(UTC+00:00)

Cosmos 1328 Rocket - Pass Details

Date: 14 July 2020
Orbit: 601 x 627 km, 82.5° (Epoch: 05 August)

Event Time Altitude Azimuth Distance (km) Brightness Sun altitude
Rises 04:03:46 0° 353° (N) 2,861 8.2 -23.0°
Reaches altitude 10° 04:05:59 10° 355° (N) 1,955 7.1 -23.2°
Maximum altitude 04:10:18 76° 81° (E) 626 3.4 -23.5°
Enters shadow 04:10:19 76° 82° (E) 626 3.4 -23.5°
